This demonstration page uses our WeatherBlox Daily Observations layout. Learn more.

Left ArrowRight Arrow

Hourly Observations for December 28, 2016

Temp ( °F °C ) Dew Point ( °F °C ) Humidity (%) Winds ( mph kmh ) Pressure ( in mb ) Visibility ( mi km ) Precip ( " mm )
12:14 am 00:14 Clear 28 -2 25 -4 86 86 SW 3 6 30.24 1024 10 16 N/A
12:34 am 00:34 Clear 28 -2 25 -4 86 86 N N/A 30.24 1024 10 16 N/A
12:54 am 00:54 Clear 27 -3 25 -4 93 93 SSW 3 6 30.24 1024 10 16 N/A
1:14 am 01:14 Clear 27 -3 25 -4 93 93 SW 3 6 30.24 1024 10 16 N/A
1:34 am 01:34 Clear 27 -3 23 -5 86 86 SW 3 6 30.24 1024 10 16 N/A
1:54 am 01:54 Clear 27 -3 23 -5 86 86 SW 3 6 30.24 1024 10 16 N/A
2:14 am 02:14 Clear 27 -3 25 -4 93 93 SSW 3 6 30.24 1024 10 16 N/A
2:34 am 02:34 Clear 27 -3 23 -5 86 86 SSW 3 6 30.24 1024 10 16 N/A
2:54 am 02:54 Clear 27 -3 23 -5 86 86 N N/A 30.24 1024 10 16 N/A
3:14 am 03:14 Clear 27 -3 23 -5 86 86 N N/A 30.24 1024 10 16 N/A
3:34 am 03:34 Clear 25 -4 23 -5 93 93 N N/A 30.27 1025 10 16 N/A
3:54 am 03:54 Clear 25 -4 23 -5 93 93 S 3 6 30.27 1025 10 16 N/A
4:14 am 04:14 Clear 25 -4 23 -5 93 93 S 5 7 30.27 1025 10 16 N/A
4:34 am 04:34 Clear 27 -3 23 -5 86 86 S 5 7 30.24 1024 10 16 N/A
4:54 am 04:54 Clear 27 -3 23 -5 86 86 S 3 6 30.24 1024 10 16 N/A
5:14 am 05:14 Clear 27 -3 23 -5 86 86 N N/A 30.24 1024 10 16 N/A
5:34 am 05:34 Clear 25 -4 23 -5 93 93 N N/A 30.27 1025 10 16 N/A
5:54 am 05:54 Clear 25 -4 23 -5 93 93 N N/A 30.27 1025 10 16 N/A
6:14 am 06:14 Clear 25 -4 23 -5 93 93 S 5 7 30.27 1025 10 16 N/A
6:34 am 06:34 Clear 25 -4 23 -5 93 93 SE 3 6 30.27 1025 10 16 N/A
6:55 am 06:55 Clear 25 -4 23 -5 93 93 SSE 7 11 30.27 1025 10 16 N/A
7:14 am 07:14 Clear 25 -4 23 -5 93 93 SSE 7 11 30.27 1025 10 16 N/A
7:34 am 07:34 Clear 25 -4 23 -5 93 93 SSE 7 11 30.27 1025 10 16 N/A
7:54 am 07:54 Clear 25 -4 23 -5 93 93 SSE 6 9 30.27 1025 10 16 N/A
8:14 am 08:14 Sunny 27 -3 23 -5 86 86 SSE 6 9 30.24 1024 10 16 N/A
8:34 am 08:34 Sunny 27 -3 23 -5 86 86 S 6 9 30.24 1024 10 16 N/A
8:54 am 08:54 Sunny 28 -2 25 -4 86 86 S 7 11 30.24 1024 10 16 N/A
9:14 am 09:14 Sunny 28 -2 25 -4 86 86 S 5 7 30.24 1024 10 16 N/A
9:34 am 09:34 Sunny 30 -1 27 -3 86 86 S 6 9 30.24 1024 10 16 N/A
9:54 am 09:54 Sunny 32 undefined 27 -3 80 80 S 6 9 30.24 1024 10 16 N/A
10:14 am 10:14 Sunny 32 undefined 28 -2 87 87 S 8 13 30.24 1024 10 16 N/A
10:34 am 10:34 Sunny 34 1 28 -2 81 81 S 9 15 30.21 1023 10 16 N/A
10:54 am 10:54 Sunny 34 1 28 -2 81 81 S 9 15 30.21 1023 10 16 N/A
11:14 am 11:14 Sunny 36 2 28 -2 75 75 S 10 17 30.21 1023 10 16 N/A
11:34 am 11:34 Sunny 36 2 28 -2 75 75 S 12 19 30.18 1022 10 16 N/A
11:55 am 11:55 Sunny 37 3 28 -2 70 70 S 10 17 30.18 1022 10 16 N/A
12:14 pm 12:14 Sunny 37 3 28 -2 70 70 S 10 17 30.15 1021 10 16 N/A
12:35 pm 12:35 Sunny 39 4 28 -2 65 65 S 14 22 30.09 1019 10 16 N/A
12:54 pm 12:54 Sunny 39 4 28 -2 65 65 S 13 20 30.09 1019 10 16 N/A
1:14 pm 13:14 Sunny 41 5 27 -3 57 57 S 14 22 30.06 1018 10 16 N/A
1:34 pm 13:34 Sunny 41 5 27 -3 57 57 S 14 22 30.06 1018 10 16 N/A
1:54 pm 13:54 Sunny 43 6 28 -2 57 57 S 17 28 30.03 1017 10 16 N/A
2:14 pm 14:14 Sunny 43 6 28 -2 57 57 S 13 20 30.03 1017 10 16 N/A
2:34 pm 14:34 Sunny 43 6 30 -1 61 61 S 14 22 30.00 1016 10 16 N/A
2:54 pm 14:54 Sunny 43 6 30 -1 61 61 S 15 24 30.00 1016 10 16 N/A
3:14 pm 15:14 Sunny 45 7 30 -1 57 57 S 14 22 29.97 1015 10 16 N/A
3:34 pm 15:34 Sunny 45 7 30 -1 57 57 S 14 22 29.97 1015 10 16 N/A
3:54 pm 15:54 Sunny 45 7 30 -1 57 57 S 15 24 29.94 1014 10 16 N/A
4:15 pm 16:15 Mostly Cloudy 43 6 30 -1 61 61 S 13 20 29.94 1014 10 16 N/A
4:34 pm 16:34 Cloudy 43 6 30 -1 61 61 S 13 20 29.94 1014 10 16 N/A
5:34 pm 17:34 Cloudy 43 6 30 -1 61 61 S 13 20 29.91 1013 10 16 N/A
5:54 pm 17:54 Cloudy 43 6 30 -1 61 61 S 12 19 29.88 1012 10 16 N/A
6:14 pm 18:14 Cloudy 43 6 30 -1 61 61 SSE 13 20 29.85 1011 10 16 N/A
6:34 pm 18:34 Cloudy 43 6 30 -1 61 61 S 13 20 29.85 1011 10 16 N/A
6:54 pm 18:54 Cloudy 43 6 30 -1 61 61 SSW 8 13 29.88 1012 10 16 N/A
7:14 pm 19:14 Cloudy 43 6 30 -1 61 61 S 6 9 29.88 1012 10 16 N/A
7:34 pm 19:34 Cloudy 43 6 30 -1 61 61 SSW 7 11 29.85 1011 10 16 N/A
7:54 pm 19:54 Cloudy 41 5 32 undefined 70 70 WSW 6 9 29.88 1012 10 16 N/A
8:15 pm 20:15 Cloudy 41 5 34 1 76 76 SW 6 9 29.88 1012 10 16 N/A
8:34 pm 20:34 Cloudy 39 4 34 1 81 81 SSW 5 7 29.85 1011 10 16 N/A
8:54 pm 20:54 Cloudy 41 5 32 undefined 70 70 SSW 6 9 29.85 1011 10 16 N/A
9:15 pm 21:15 Cloudy 41 5 32 undefined 70 70 WSW 5 7 29.85 1011 10 16 N/A
9:34 pm 21:34 Cloudy 39 4 34 1 81 81 W 6 9 29.85 1011 10 16 N/A
9:54 pm 21:54 Cloudy 39 4 34 1 81 81 SW 5 7 29.85 1011 10 16 N/A
10:14 pm 22:14 Cloudy 39 4 36 2 87 87 W 9 15 29.85 1011 5 8 N/A
10:34 pm 22:34 Cloudy 39 4 37 3 93 93 WSW 8 13 29.85 1011 5 8 N/A
10:54 pm 22:54 Cloudy 39 4 37 3 93 93 SW 5 7 29.85 1011 10 16 N/A
11:14 pm 23:14 Mostly Cloudy 39 4 36 2 87 87 WSW 5 7 29.85 1011 10 16 N/A
11:34 pm 23:34 Mostly Cloudy 39 4 36 2 87 87 WSW 9 15 29.85 1011 10 16 N/A
11:54 pm 23:54 Mostly Cloudy 39 4 36 2 87 87 W 13 20 29.85 1011 10 16 N/A

Powered by AerisWeather